Weather History for KRDM - October, 2010

Change the Weather History Date:

Wednesday, October 6, 2010

  Actual Average Record
Temperature  
Mean Temperature 50 °F 51 °F  
Max Temperature 67 °F 68 °F 92 °F (1980)
Min Temperature 32 °F 33 °F 16 °F (2012)
Degree Days  
Heating Degree Days 15 14  
Month to date heating degree days 65 81  
Since 1 July heating degree days 472 480  
Cooling Degree Days 0 0  
Month to date cooling degree days 0 0  
Year to date cooling degree days 161 222  
Moisture  
Dew Point 37 °F    
Average Humidity 70    
Maximum Humidity 96    
Minimum Humidity 43    
Precipitation  
Precipitation 0.00 in 0.01 in 0.26 in (1960)
Month to date precipitation 0.01 0.09  
Year to date precipitation 7.15 6.23  
Sea Level Pressure  
Sea Level Pressure 30.11 in    
Wind  
Wind Speed 3 mph (West)    
Max Wind Speed 10 mph    
Max Gust Speed 13 mph    
Visibility 10 miles    
Events      
T = Trace of Precipitation, MM = Missing Value Source: NWS Daily Summary

Daily Weather History Graph

Daily Weather History Graph

Search for Another Location

Airport or City:

Trip Planner

Search our weather history database for the weather conditions in past years. The results will help you decide how hot, cold, wet, or windy it might be!

Date:

Astronomy

Oct. 06, 2010 Rise Set
Actual Time 7:08 AM PDT 6:36 PM PDT
Civil Twilight 6:39 AM PDT 7:05 PM PDT
Nautical Twilight 6:05 AM PDT 7:38 PM PDT
Astronomical Twilight 5:32 AM PDT 8:12 PM PDT
Moon 5:50 AM PDT (10/6) 5:41 PM PDT (10/6)
Length of Visible Light 12h 25m
Length of Day
11h 27m
Waning Crescent, 1% of the Moon is Illuminated
Oct 6
Waning Crescent
Oct 7
New
Oct 14
First Quarter
Oct 22
Full
Oct 30
Last Quarter

Hourly Weather History & Observations

Time (PDT) Temp. Windchill Dew Point Humidity Pressure Visibility Wind Dir Wind Speed Gust Speed Precip Events Conditions
12:56 AM 39.0 °F - 33.1 °F 79% 30.24 in 10.0 mi Calm Calm - N/A   Clear
1:56 AM 35.1 °F - 30.9 °F 85% 30.23 in 10.0 mi Calm Calm - N/A   Clear
2:56 AM 35.1 °F - 30.9 °F 85% 30.23 in 10.0 mi Calm Calm - N/A   Clear
3:56 AM 35.1 °F 32.2 °F 32.0 °F 89% 30.22 in 10.0 mi SSE 3.5 mph - N/A   Clear
4:56 AM 33.1 °F 28.7 °F 30.9 °F 92% 30.21 in 10.0 mi SSE 4.6 mph - N/A   Clear
5:56 AM 34.0 °F 28.0 °F 32.0 °F 92% 30.21 in 10.0 mi SSE 6.9 mph - N/A   Clear
6:56 AM 35.1 °F - 32.0 °F 89% 30.21 in 10.0 mi Calm Calm - N/A   Clear
7:56 AM 37.9 °F - 34.0 °F 86% 30.21 in 10.0 mi Calm Calm - N/A   Mostly Cloudy
8:56 AM 43.0 °F - 37.0 °F 80% 30.20 in 10.0 mi Calm Calm - N/A   Clear
9:56 AM 50.0 °F - 37.9 °F 63% 30.18 in 10.0 mi North 3.5 mph - N/A   Partly Cloudy
10:56 AM 54.0 °F - 39.0 °F 57% 30.16 in 10.0 mi Variable 4.6 mph - N/A   Clear
11:56 AM 55.0 °F - 39.0 °F 55% 30.14 in 10.0 mi Calm Calm - N/A   Partly Cloudy
12:56 PM 59.0 °F - 39.9 °F 49% 30.11 in 10.0 mi Variable 3.5 mph - N/A   Clear
1:56 PM 63.0 °F - 39.9 °F 43% 30.08 in 10.0 mi North 6.9 mph - N/A   Clear
2:56 PM 64.9 °F - 41.0 °F 42% 30.05 in 10.0 mi NNW 5.8 mph - N/A   Clear
3:56 PM 64.9 °F - 41.0 °F 42% 30.02 in 10.0 mi Calm Calm - N/A   Clear
4:56 PM 64.0 °F - 42.1 °F 45% 30.00 in 10.0 mi NNW 5.8 mph - N/A   Clear
5:56 PM 61.0 °F - 42.1 °F 50% 29.99 in 10.0 mi NNW 6.9 mph - N/A   Clear
6:56 PM 57.9 °F - 42.1 °F 56% 30.00 in 10.0 mi NW 5.8 mph - N/A   Clear
7:56 PM 50.0 °F - 39.9 °F 68% 30.02 in 10.0 mi Calm Calm - N/A   Clear
8:56 PM 46.9 °F - 39.0 °F 74% 30.01 in 10.0 mi WSW 3.5 mph - N/A   Clear
9:56 PM 45.0 °F 43.5 °F 39.0 °F 80% 30.01 in 10.0 mi SW 3.5 mph - N/A   Clear
10:56 PM 42.1 °F 39.2 °F 37.9 °F 85% 30.00 in 10.0 mi South 4.6 mph - N/A   Clear
11:56 PM 42.1 °F 39.2 °F 37.9 °F 85% 30.00 in 10.0 mi South 4.6 mph - N/A   Clear